| time (UTC) | temp F | wind direction | speed knots | gust knots | rain 1hr in | rain 24hr in | rain mn in | humidity % | barometer mb |
| 20260507025516 | 59 | 166 | 3.5 | 5.2 | 0.00 | 0.00 | 0.00 | 77 | 1020.2 |
| 20260507024515 | 59 | 156 | 3.5 | 5.2 | 0.00 | 0.00 | 0.00 | 78 | 1020.1 |
| 20260507023536 | 59 | 151 | 2.6 | 5.2 | 0.00 | 0.00 | 0.00 | 78 | 1019.9 |
| 20260507022555 | 59 | 158 | 3.5 | 7.0 | 0.00 | 0.00 | 0.00 | 78 | 1019.9 |
| 20260507021515 | 59 | 139 | 4.3 | 8.7 | 0.00 | 0.00 | 0.00 | 78 | 1019.9 |
| 20260507020516 | 59 | 148 | 4.3 | 8.7 | 0.00 | 0.00 | 0.00 | 78 | 1019.9 |
| 20260507015515 | 59 | 151 | 4.3 | 7.0 | 0.00 | 0.00 | 0.00 | 78 | 1019.8 |
| 20260507014515 | 59 | 153 | 4.3 | 7.0 | 0.00 | 0.00 | 0.00 | 78 | 1019.9 |
| 20260507013515 | 59 | 155 | 3.5 | 7.8 | 0.00 | 0.00 | 0.00 | 78 | 1019.8 |
| 20260507012514 | 58 | 141 | 5.2 | 7.8 | 0.00 | 0.00 | 0.00 | 79 | 1020.0 |
| 20260507011515 | 58 | 149 | 5.2 | 7.8 | 0.00 | 0.00 | 0.00 | 79 | 1019.9 |
| 20260507010514 | 59 | 147 | 4.3 | 8.7 | 0.00 | 0.00 | 0.00 | 79 | 1019.9 |
| 20260507005515 | 58 | 158 | 6.1 | 8.7 | 0.00 | 0.00 | 0.00 | 79 | 1020.1 |
| 20260507004515 | 58 | 144 | 6.1 | 8.7 | 0.00 | 0.00 | 0.00 | 79 | 1020.0 |
| 20260507003515 | 58 | 147 | 5.2 | 9.6 | 0.00 | 0.00 | 0.00 | 79 | 1020.0 |
| 20260507002516 | 58 | 144 | 6.1 | 9.6 | 0.00 | 0.00 | 0.00 | 78 | 1020.0 |
| 20260507001515 | 58 | 160 | 6.1 | 8.7 | 0.00 | 0.00 | 0.00 | 78 | 1020.0 |
| 20260507000515 | 59 | 153 | 3.5 | 8.7 | 0.00 | 0.00 | 0.00 | 78 | 1020.1 |
| 20260506235515 | 58 | 151 | 4.3 | 7.0 | 0.00 | 0.00 | 0.00 | 78 | 1020.0 |
| 20260506234515 | 58 | 148 | 5.2 | 7.0 | 0.00 | 0.00 | 0.00 | 78 | 1020.1 |
| 20260506233515 | 58 | 154 | 4.3 | 7.8 | 0.00 | 0.00 | 0.00 | 78 | 1020.2 |
| 20260506232516 | 59 | 164 | 3.5 | 7.8 | 0.00 | 0.00 | 0.00 | 77 | 1020.2 |
| 20260506231515 | 58 | 167 | 5.2 | 8.7 | 0.00 | 0.00 | 0.00 | 78 | 1020.2 |
| 20260506230535 | 58 | 158 | 4.3 | 7.8 | 0.00 | 0.00 | 0.00 | 78 | 1020.2 |
| 20260506225515 | 58 | 160 | 5.2 | 8.7 | 0.00 | 0.00 | 0.00 | 78 | 1020.2 |
| 20260506224515 | 58 | 155 | 6.1 | 8.7 | 0.00 | 0.00 | 0.00 | 78 | 1020.2 |
| 20260506223515 | 58 | 155 | 5.2 | 7.0 | 0.00 | 0.00 | 0.00 | 77 | 1020.3 |
| 20260506222635 | 58 | 157 | 5.2 | 8.7 | 0.00 | 0.00 | 0.00 | 77 | 1020.3 |
| 20260506221534 | 59 | 179 | 4.3 | 8.7 | 0.00 | 0.00 | 0.00 | 77 | 1020.4 |
| 20260506220515 | 58 | 152 | 5.2 | 9.6 | 0.00 | 0.00 | 0.00 | 77 | 1020.4 |
| 20260506215515 | 58 | 161 | 7.0 | 9.6 | 0.00 | 0.00 | 0.00 | 76 | 1020.5 |
| 20260506214515 | 58 | 157 | 5.2 | 9.6 | 0.00 | 0.00 | 0.00 | 77 | 1020.4 |
| 20260506213515 | 58 | 150 | 7.0 | 12.2 | 0.00 | 0.00 | 0.00 | 76 | 1020.5 |
| 20260506212515 | 58 | 147 | 7.0 | 11.3 | 0.00 | 0.00 | 0.00 | 76 | 1020.5 |
| 20260506211515 | 58 | 160 | 6.1 | 8.7 | 0.00 | 0.00 | 0.00 | 75 | 1020.5 |
| 20260506210515 | 58 | 144 | 5.2 | 9.6 | 0.00 | 0.00 | 0.00 | 75 | 1020.5 |
| 20260506205515 | 59 | 151 | 5.2 | 9.6 | 0.00 | 0.00 | 0.00 | 76 | 1020.4 |
| 20260506204515 | 59 | 166 | 5.2 | 9.6 | 0.00 | 0.00 | 0.00 | 75 | 1020.3 |
| 20260506203514 | 58 | 136 | 6.1 | 11.3 | 0.00 | 0.00 | 0.00 | 76 | 1020.3 |
| 20260506202535 | 58 | 143 | 5.2 | 11.3 | 0.00 | 0.00 | 0.00 | 76 | 1020.3 |
| 20260506201515 | 58 | 166 | 5.2 | 8.7 | 0.00 | 0.00 | 0.00 | 76 | 1020.2 |
| 20260506200515 | 58 | 150 | 5.2 | 12.2 | 0.00 | 0.00 | 0.00 | 78 | 1020.3 |
| 20260506195515 | 59 | 156 | 4.3 | 7.8 | 0.00 | 0.00 | 0.00 | 77 | 1020.2 |
| 20260506194536 | 58 | 167 | 5.2 | 7.8 | 0.00 | 0.00 | 0.00 | 79 | 1020.2 |
| 20260506193515 | 57 | 153 | 4.3 | 10.4 | 0.00 | 0.00 | 0.00 | 80 | 1020.2 |
| 20260506192515 | 58 | 136 | 5.2 | 10.4 | 0.00 | 0.00 | 0.00 | 79 | 1020.2 |
| 20260506191515 | 56 | 135 | 5.2 | 8.7 | 0.00 | 0.00 | 0.00 | 81 | 1020.2 |
| 20260506190516 | 56 | 141 | 6.1 | 9.6 | 0.00 | 0.00 | 0.00 | 82 | 1020.0 |
| 20260506185616 | 56 | 150 | 7.0 | 11.3 | 0.00 | 0.00 | 0.00 | 81 | 1020.0 |
| 20260506184516 | 56 | 128 | 6.1 | 11.3 | 0.00 | 0.00 | 0.00 | 82 | 1020.0 |
| 20260506183514 | 56 | 153 | 6.1 | 9.6 | 0.00 | 0.00 | 0.00 | 83 | 1020.3 |
| 20260506182516 | 56 | 140 | 5.2 | 8.7 | 0.00 | 0.00 | 0.00 | 83 | 1020.1 |
| 20260506181515 | 56 | 145 | 5.2 | 8.7 | 0.00 | 0.00 | 0.00 | 84 | 1020.1 |
| 20260506180515 | 56 | 161 | 4.3 | 7.8 | 0.00 | 0.00 | 0.00 | 84 | 1020.1 |
| 20260506175515 | 56 | 155 | 5.2 | 9.6 | 0.00 | 0.00 | 0.00 | 86 | 1019.9 |
| 20260506174515 | 55 | 142 | 6.1 | 9.6 | 0.00 | 0.00 | 0.00 | 88 | 1019.6 |
| 20260506173516 | 56 | 135 | 4.3 | 8.7 | 0.00 | 0.00 | 0.00 | 88 | 1019.6 |
| 20260506172515 | 55 | 142 | 5.2 | 8.7 | 0.00 | 0.00 | 0.00 | 90 | 1019.8 |
| 20260506171515 | 54 | 122 | 6.1 | 9.6 | 0.00 | 0.00 | 0.00 | 91 | 1019.9 |
| 20260506170515 | 54 | 128 | 6.1 | 9.6 | 0.00 | 0.00 | 0.00 | 90 | 1019.9 |
| 20260506165514 | 55 | 144 | 5.2 | 9.6 | 0.00 | 0.00 | 0.00 | 88 | 1019.9 |
| 20260506164514 | 55 | 138 | 5.2 | 10.4 | 0.00 | 0.00 | 0.00 | 89 | 1019.7 |
| 20260506163515 | 55 | 153 | 4.3 | 7.0 | 0.00 | 0.00 | 0.00 | 88 | 1019.8 |
| 20260506162515 | 55 | 159 | 5.2 | 8.7 | 0.00 | 0.00 | 0.00 | 89 | 1019.7 |
| 20260506161516 | 54 | 123 | 6.1 | 10.4 | 0.00 | 0.00 | 0.00 | 91 | 1019.4 |
| 20260506160515 | 54 | 125 | 7.0 | 10.4 | 0.00 | 0.00 | 0.00 | 92 | 1019.2 |
| 20260506155515 | 54 | 129 | 6.1 | 9.6 | 0.00 | 0.00 | 0.00 | 93 | 1019.2 |
| 20260506154515 | 54 | 132 | 6.1 | 8.7 | 0.00 | 0.00 | 0.00 | 93 | 1019.2 |
| 20260506153535 | 54 | 139 | 4.3 | 7.8 | 0.00 | 0.00 | 0.00 | 93 | 1019.3 |
| 20260506152515 | 54 | 153 | 4.3 | 7.0 | 0.00 | 0.00 | 0.00 | 93 | 1019.6 |
| 20260506151515 | 54 | 152 | 3.5 | 7.0 | 0.00 | 0.00 | 0.00 | 93 | 1019.6 |
| 20260506150515 | 54 | 164 | 3.5 | 7.0 | 0.00 | 0.00 | 0.00 | 94 | 1019.4 |
| 20260506145514 | 53 | 138 | 4.3 | 8.7 | 0.00 | 0.00 | 0.00 | 95 | 1019.1 |
| 20260506144516 | 53 | 140 | 5.2 | 7.8 | 0.00 | 0.00 | 0.00 | 95 | 1019.2 |
| 20260506143515 | 54 | 134 | 4.3 | 7.8 | 0.00 | 0.00 | 0.00 | 93 | 1019.3 |
| 20260506142535 | 54 | 142 | 2.6 | 5.2 | 0.00 | 0.00 | 0.00 | 92 | 1019.4 |
| 20260506141515 | 54 | 156 | 3.5 | 6.1 | 0.00 | 0.00 | 0.00 | 92 | 1019.3 |
| 20260506140516 | 53 | 154 | 4.3 | 7.0 | 0.00 | 0.00 | 0.00 | 92 | 1019.1 |
| 20260506135515 | 54 | 151 | 4.3 | 7.0 | 0.00 | 0.00 | 0.00 | 90 | 1019.1 |
| 20260506134535 | 55 | 174 | 1.7 | 5.2 | 0.00 | 0.00 | 0.00 | 88 | 1019.2 |
| 20260506133516 | 55 | 165 | 3.5 | 5.2 | 0.00 | 0.00 | 0.00 | 88 | 1018.9 |
| 20260506132515 | 55 | 176 | 1.7 | 7.0 | 0.00 | 0.00 | 0.00 | 88 | 1019.0 |
| 20260506131515 | 55 | 159 | 2.6 | 6.1 | 0.00 | 0.00 | 0.00 | 88 | 1018.8 |
| 20260506130555 | 55 | 162 | 3.5 | 7.0 | 0.00 | 0.00 | 0.00 | 87 | 1018.8 |
| 20260506125515 | 54 | 127 | 5.2 | 7.8 | 0.00 | 0.00 | 0.00 | 89 | 1018.3 |
| 20260506124535 | 55 | 160 | 4.3 | 7.8 | 0.00 | 0.00 | 0.00 | 88 | 1018.6 |
| 20260506123515 | 55 | 155 | 4.3 | 7.8 | 0.00 | 0.00 | 0.00 | 88 | 1018.3 |
| 20260506122515 | 55 | 158 | 3.5 | 7.8 | 0.00 | 0.00 | 0.00 | 87 | 1018.3 |
| 20260506121514 | 55 | 150 | 3.5 | 7.0 | 0.00 | 0.00 | 0.00 | 87 | 1018.3 |
| 20260506120515 | 55 | 141 | 3.5 | 6.1 | 0.00 | 0.00 | 0.00 | 87 | 1018.3 |
| 20260506115516 | 55 | 149 | 3.5 | 6.1 | 0.00 | 0.00 | 0.00 | 86 | 1018.2 |
| 20260506114516 | 55 | 142 | 3.5 | 6.1 | 0.00 | 0.00 | 0.00 | 86 | 1018.1 |
| 20260506113515 | 55 | 126 | 3.5 | 6.1 | 0.00 | 0.00 | 0.00 | 87 | 1018.0 |
| 20260506112514 | 55 | 123 | 3.5 | 6.1 | 0.00 | 0.00 | 0.00 | 87 | 1017.9 |
| 20260506111515 | 55 | 129 | 3.5 | 6.1 | 0.00 | 0.00 | 0.00 | 87 | 1017.9 |
| 20260506110516 | 55 | 145 | 3.5 | 7.0 | 0.00 | 0.00 | 0.00 | 88 | 1017.9 |
| 20260506105515 | 55 | 140 | 4.3 | 7.0 | 0.00 | 0.00 | 0.00 | 87 | 1017.8 |
| 20260506104516 | 55 | 162 | 3.5 | 5.2 | 0.00 | 0.00 | 0.00 | 87 | 1017.8 |
| 20260506103515 | 55 | 153 | 2.6 | 5.2 | 0.00 | 0.00 | 0.00 | 87 | 1017.8 |
| 20260506102515 | 55 | 148 | 3.5 | 6.1 | 0.00 | 0.00 | 0.00 | 86 | 1017.7 |
| 20260506101516 | 55 | 151 | 3.5 | 6.1 | 0.00 | 0.00 | 0.00 | 87 | 1017.6 |
| 20260506100535 | 55 | 156 | 4.3 | 7.0 | 0.00 | 0.00 | 0.00 | 86 | 1017.7 |
| 20260506095515 | 55 | 155 | 3.5 | 6.1 | 0.00 | 0.00 | 0.00 | 86 | 1017.6 |
| 20260506094536 | 56 | 136 | 2.6 | 6.1 | 0.00 | 0.00 | 0.00 | 85 | 1017.3 |
| 20260506093515 | 56 | 127 | 1.7 | 6.1 | 0.00 | 0.00 | 0.00 | 86 | 1017.1 |
| 20260506092514 | 55 | 146 | 2.6 | 5.2 | 0.00 | 0.00 | 0.00 | 86 | 1017.3 |
| 20260506091515 | 55 | 147 | 3.5 | 6.1 | 0.00 | 0.00 | 0.00 | 87 | 1017.2 |
| 20260506090555 | 55 | 145 | 4.3 | 7.0 | 0.00 | 0.00 | 0.00 | 86 | 1017.1 |
| 20260506085516 | 56 | 129 | 3.5 | 6.1 | 0.00 | 0.00 | 0.00 | 86 | 1017.0 |
| 20260506084515 | 56 | 124 | 4.3 | 6.1 | 0.00 | 0.00 | 0.00 | 86 | 1016.9 |
| 20260506083515 | 56 | 137 | 3.5 | 7.0 | 0.00 | 0.00 | 0.00 | 86 | 1016.9 |
| 20260506082515 | 56 | 128 | 5.2 | 7.0 | 0.00 | 0.00 | 0.00 | 85 | 1016.8 |
| 20260506081515 | 56 | 134 | 4.3 | 7.0 | 0.00 | 0.00 | 0.00 | 85 | 1016.7 |
| 20260506080515 | 56 | 141 | 4.3 | 7.8 | 0.00 | 0.00 | 0.00 | 85 | 1016.6 |
| 20260506072515 | 57 | 143 | 4.3 | 7.0 | 0.00 | 0.00 | 0.00 | 83 | 1016.3 |
| 20260506071515 | 57 | 150 | 4.3 | 7.0 | 0.00 | 0.00 | 0.00 | 83 | 1016.3 |
| 20260506070515 | 58 | 160 | 4.3 | 6.1 | 0.00 | 0.00 | 0.00 | 82 | 1016.3 |
| 20260506062515 | 59 | 124 | 3.5 | 5.2 | 0.00 | 0.00 | 0.00 | 81 | 1016.0 |
| 20260506061515 | 60 | 107 | 2.6 | 3.5 | 0.00 | 0.00 | 0.00 | 79 | 1015.9 |
| 20260506060535 | 60 | 106 | 0.9 | 2.6 | 0.00 | 0.00 | 0.00 | 79 | 1015.8 |
| 20260506050515 | 62 | 133 | 3.5 | 5.2 | 0.00 | 0.00 | 0.00 | 78 | 1015.1 |
| 20260506044515 | 62 | 106 | 1.7 | 3.5 | 0.00 | 0.00 | 0.00 | 78 | 1014.9 |
| 20260506043515 | 62 | 99 | 0.9 | 3.5 | 0.00 | 0.00 | 0.00 | 79 | 1015.0 |
| 20260506042515 | 62 | 109 | 2.6 | 4.3 | 0.00 | 0.00 | 0.00 | 79 | 1014.8 |
| 20260506041515 | 62 | 113 | 2.6 | 3.5 | 0.00 | 0.00 | 0.00 | 78 | 1014.7 |
| 20260506040515 | 62 | 150 | 2.6 | 4.3 | 0.00 | 0.00 | 0.00 | 77 | 1014.9 |
| 20260506035516 | 63 | 142 | 2.6 | 4.3 | 0.00 | 0.00 | 0.00 | 77 | 1014.8 |
| 20260506034535 | 63 | 143 | 2.6 | 3.5 | 0.00 | 0.00 | 0.00 | 76 | 1014.6 |
| 20260506033515 | 64 | 166 | 1.7 | 2.6 | 0.00 | 0.00 | 0.00 | 75 | 1014.6 |
| 20260506032515 | 65 | 179 | 1.7 | 3.5 | 0.00 | 0.00 | 0.00 | 74 | 1014.4 |
| 20260506031515 | 64 | 141 | 2.6 | 4.3 | 0.00 | 0.00 | 0.00 | 74 | 1014.4 |
| 20260506030515 | 65 | 132 | 2.6 | 5.2 | 0.00 | 0.00 | 0.00 | 73 | 1014.4 |